Lake Mead Weather Center

Moon Phase Calendar



Lake Mead Water Level
Online Cameras

 


      

Current Conditions in Meadview
2/5/2023 1:26:23 PM

67°F
Feels Like 65
Clouds
Humidity
39%
Pressure
29.94"
Wind
25 mph (SW)
Dew Point
41°F
UV Index
3/10 (Moderate)
Visibility
6 mi

Hourly Forecast

Date & Time Sun, Feb 5
1:00 PM
Sun, Feb 5
2:00 PM
Sun, Feb 5
3:00 PM
Sun, Feb 5
4:00 PM
Sun, Feb 5
5:00 PM
Sun, Feb 5
6:00 PM
Sun, Feb 5
7:00 PM
Sun, Feb 5
8:00 PM
Sun, Feb 5
9:00 PM
Sun, Feb 5
10:00 PM
Sun, Feb 5
11:00 PM
Mon, Feb 6
12:00 AM
Mon, Feb 6
1:00 AM
Mon, Feb 6
2:00 AM
Mon, Feb 6
3:00 AM
Mon, Feb 6
4:00 AM
Mon, Feb 6
5:00 AM
Mon, Feb 6
6:00 AM
Mon, Feb 6
7:00 AM
Mon, Feb 6
8:00 AM
Mon, Feb 6
9:00 AM
Mon, Feb 6
10:00 AM
Mon, Feb 6
11:00 AM
Mon, Feb 6
12:00 PM
Mon, Feb 6
1:00 PM
Mon, Feb 6
2:00 PM
Mon, Feb 6
3:00 PM
Mon, Feb 6
4:00 PM
Mon, Feb 6
5:00 PM
Mon, Feb 6
6:00 PM
Mon, Feb 6
7:00 PM
Mon, Feb 6
8:00 PM
Mon, Feb 6
9:00 PM
Mon, Feb 6
10:00 PM
Mon, Feb 6
11:00 PM
Tue, Feb 7
12:00 AM
Tue, Feb 7
1:00 AM
Tue, Feb 7
2:00 AM
Tue, Feb 7
3:00 AM
Tue, Feb 7
4:00 AM
Tue, Feb 7
5:00 AM
Tue, Feb 7
6:00 AM
Tue, Feb 7
7:00 AM
Tue, Feb 7
8:00 AM
Tue, Feb 7
9:00 AM
Tue, Feb 7
10:00 AM
Tue, Feb 7
11:00 AM
Tue, Feb 7
12:00 PM
Condition
Clouds

Clouds

Clouds

Clouds

Clear

Clear

Clear

Clear

Clear

Clouds

Clouds

Clouds

Clouds

Clouds

Clouds

Clouds

Clear

Clear

Clear

Clear

Clear

Clear

Clear

Clear

Clear

Clear

Clear

Clear

Clear

Clear

Clear

Clear

Clear

Clear

Clear

Clear

Clear

Clear

Clear

Clear

Clear

Clear

Clear

Clear

Clear

Clear

Clear

Clear
Temperature 67°F67°F66°F65°F61°F57°F55°F53°F51°F52°F51°F50°F49°F49°F49°F47°F46°F46°F46°F49°F51°F53°F55°F56°F57°F58°F59°F58°F56°F54°F53°F52°F51°F49°F48°F47°F46°F45°F44°F43°F43°F42°F43°F46°F49°F50°F52°F54°F
Feels Like 65°F65°F64°F62°F58°F54°F52°F50°F49°F50°F49°F50°F49°F49°F48°F46°F45°F44°F44°F49°F48°F50°F51°F53°F54°F55°F55°F55°F53°F51°F50°F49°F48°F46°F45°F44°F43°F42°F42°F41°F41°F42°F43°F46°F47°F47°F49°F51°F
Cloudiness 15%15%13%12%3%0%0%0%10%25%93%96%96%97%97%94%7%4%3%2%2%1%0%0%0%0%0%0%1%1%1%0%0%0%0%0%0%0%0%0%0%0%0%0%0%0%3%4%
Visibility 6 mi6 mi6 mi6 mi6 mi6 mi6 mi6 mi6 mi6 mi6 mi6 mi6 mi6 mi6 mi6 mi6 mi6 mi6 mi6 mi6 mi6 mi6 mi6 mi6 mi6 mi6 mi6 mi6 mi6 mi6 mi6 mi6 mi6 mi6 mi6 mi6 mi6 mi6 mi6 mi6 mi6 mi6 mi6 mi6 mi6 mi6 mi6 mi
Precipitation 0%0%0%0%5%5%9%14%25%23%5%4%2%0%0%0%0%0%0%0%0%0%0%0%0%0%0%0%0%0%0%0%0%0%0%0%0%0%0%0%0%0%0%0%0%0%0%0%
Humidity 39%38%34%30%28%32%41%55%67%63%65%69%72%73%73%76%77%77%76%66%54%43%37%32%29%27%26%28%34%38%40%43%45%48%52%54%56%59%60%61%63%63%63%53%47%43%40%36%
Dew Point 41°F40°F37°F33°F28°F24°F28°F33°F36°F36°F36°F36°F36°F36°F36°F36°F35°F35°F35°F34°F31°F27°F25°F23°F22°F21°F21°F22°F24°F25°F26°F27°F27°F27°F28°F28°F28°F28°F27°F27°F27°F27°F27°F26°F26°F25°F25°F24°F
Pressure 29.94"29.94"29.94"29.91"29.91"29.94"29.94"29.97"30"30"30"30"30.03"30.03"30.03"30.06"30.06"30.09"30.12"30.12"30.15"30.15"30.15"30.12"30.09"30.09"30.09"30.09"30.09"30.15"30.15"30.18"30.21"30.21"30.24"30.27"30.3"30.3"30.3"30.33"30.36"30.36"30.39"30.39"30.39"30.39"30.36"30.33"
Wind Speed 25 mph26.5 mph26.9 mph25.2 mph21 mph14.9 mph10.2 mph9.6 mph4.6 mph3.2 mph2.4 mph2.9 mph2.3 mph2 mph3.6 mph3.5 mph3.4 mph3.2 mph3.3 mph2.9 mph5.9 mph6.6 mph7.1 mph9 mph10.3 mph12.2 mph12.7 mph12.7 mph9 mph7.7 mph8.1 mph8.5 mph7.6 mph8 mph7.8 mph6.5 mph6.1 mph5.2 mph4.4 mph4.3 mph3.4 mph2.4 mph2.4 mph1.5 mph3.9 mph5.1 mph4 mph3.6 mph
Wind
Direction
231°
SW
233°
SW
238°
WSW
238°
WSW
235°
SW
235°
SW
246°
WSW
292°
WNW
281°
W
255°
WSW
332°
NNW
21°
NNE
15°
NNE
357°
N
340°
NNW
345°
NNW
337°
NNW
318°
NW
323°
NW
316°
NW
322°
NW
334°
NNW
335°
NNW
333°
NNW
337°
NNW
343°
NNW
347°
NNW
348°
NNW
342°
NNW
331°
NNW
324°
NW
326°
NW
332°
NNW
337°
NNW
345°
NNW
351°
N
352°
N

N

N
358°
N

N
17°
NNE
16°
NNE
44°
NE
332°
NNW
345°
NNW
11°
N
16°
NNE

Daily Forecast

Date High Low Precip. Humidity
Today
Feb 5

Clouds
67 °F
51 °F
25%
36%
Monday
Feb 6

Clear
59 °F
46 °F
4%
37%
Tuesday
Feb 7

Clear
57 °F
42 °F
0%
40%
Wednesday
Feb 8

Clear
63 °F
48 °F
0%
33%
Thursday
Feb 9

Clouds
62 °F
45 °F
0%
35%
Friday
Feb 10

Clear
66 °F
48 °F
0%
21%
Saturday
Feb 11

Clear
63 °F
51 °F
0%
23%
Sunday
Feb 12

Clouds
60 °F
49 °F
7%
39%
Monday
Feb 13

Clouds
59 °F
43 °F
0%
28%
Tuesday
Feb 14

Rain
58 °F
41 °F
80%
32%
Wednesday
Feb 15

Clouds
46 °F
37 °F
2%
25%
Thursday
Feb 16

Clouds
47 °F
37 °F
0%
34%
Friday
Feb 17

Clear
52 °F
38 °F
0%
29%
Saturday
Feb 18

Clouds
57 °F
41 °F
0%
29%
Sunday
Feb 19

Rain
64 °F
47 °F
39%
20%
Monday
Feb 20

Rain
52 °F
41 °F
64%
25%

Temperature 8-14 Day Outlook



Precipitation 8-14 Day Outlook






About Us
Contact Us
Site Map
Search Site
Advertise With Us
   
Mead.USLakes.info
THE LAKE MEAD WEBSITE

Copyright 2023, Lakes Online
Privacy    |    Legal